Regional Weather Roundup
Issued by NWS

Home | Current Version | Previous Version | Text Only | Print | Product List | Glossary Off
Versions: 1 2 3 4 5 6 7 8 9 10 11 12 13 14 15 16 17 18 19 20 21 22 23 24 25 26 27 28 29 30 31 32 33 34 35 36 37 38 39 40 41 42 43 44 45 46 47 48 49 50

000
ASUS44 KMEG 042210
RWRTN
TENNESSEE HOURLY STATE WEATHER ROUNDUP
NATIONAL WEATHER SERVICE MEMPHIS TN
500 PM CDT MON MAY 04 2015

TNZ002-004-019-021-049-052-054-088>092-042300-
WEST TENNESSEE

CITY           SKY/WX    TMP DP  RH WIND       PRES   REMARKS
MEMPHIS INTL   MOSUNNY   83  44  25 SE9       30.16S
NWS MEMPHIS      N/A     85 N/A N/A MISG        N/A
JACKSON        SUNNY     81  50  33 S8        30.17S
DYERSBURG      MOSUNNY   82  48  30 S10       30.15F
PARIS          MOSUNNY   81  54  39 S7        30.17S
LEXINGTON      MOSUNNY   81  50  34 SW8       30.17F
$$

TNZ008-025-027-028-033-062-065-066-042300-
NORTH MIDDLE TENNESSEE

CITY           SKY/WX    TMP DP  RH WIND       PRES   REMARKS
NASHVILLE      PTSUNNY   82  51  34 SW8       30.19S
CLARKSVILLE    MOSUNNY   81  56  42 SW9       30.17F
SMYRNA         PTSUNNY   81  55  40 S6        30.20F
COOKEVILLE     SUNNY     81  54  39 SW5       30.22S
CROSSVILLE     MOSUNNY   77  47  34 VRB5      30.26S
$$

TNZ061-075-076-078-094-096-097-042300-
SOUTH MIDDLE TENNESSEE

CITY           SKY/WX    TMP DP  RH WIND       PRES   REMARKS
FAYETTEVILLE     N/A     79  52  38 S7        30.22F
TULLAHOMA      SUNNY     79  48  34 S6        30.23F
WINCHESTER     PTSUNNY   81  54  39 CALM      30.22F
MCMINNVILLE    PTSUNNY   81  54  39 SW6       30.22F
COLUMBIA       SUNNY     79  54  41 S6        30.18F
SHELBYVILLE      N/A     81  55  41 S9        30.22S
$$

TNZ017-018-042-046-047-042300-
NORTHEAST TENNESSEE

CITY           SKY/WX    TMP DP  RH WIND       PRES   REMARKS
TRI CITIES     MOSUNNY   79  48  33 W8        30.24F
ELIZABETHTON   CLEAR     77  50  38 W5        30.25S
$$

TNZ012-013-036-069-073-074-042300-
CENTRAL EAST TENNESSEE

CITY           SKY/WX    TMP DP  RH WIND       PRES   REMARKS
KNOXVILLE      MOSUNNY   80  47  31 W7        30.22S
OAK RIDGE      SUNNY     83  48  29 W3        30.23F
GATLINBURG     CLEAR     81  48  32 VRB5      30.22S
MORRISTOWN     CLEAR     81  50  34 W8        30.25S
$$

TNZ083-085-099-042300-
SOUTHEAST TENNESSEE

CITY           SKY/WX    TMP DP  RH WIND       PRES   REMARKS
CHATTANOOGA    MOSUNNY   81  49  32 NW5       30.22F
$$

SKY/WX REPORTED AS FAIR MEANS FEW OR NO CLOUDS BELOW
12 THOUSAND FEET.



USA.gov is the U.S. government's official web portal to all federal, state and local government web resources and services.